RH
82 73 92 94 88 73 50 36 38 41 43 48 52 56 61 60 61 59 52 61 70 66 56 61 71 77 72 72 75 75 75 84 88 88 84 81 79 75 73 82 75 75 71 62
87 82 95 92 89 69 46 37 39 42 46 50 49 52 58 64 66 57 58 57 63 65 59 64 73 68 70 68 68 72 74 80 90 90 84 80 82 78 75 76 74 76 77 66
85 87 97 94 84 67 41 35 41 43 46 49 51 50 56 63 64 60 52 53 56 56 63 65 73 76 76 75 72 69 69 76 78 80 77 75 81 78 78 79 87 76 74 66
89 98 98 93 77 65 40 33 33 32 42 47 47 46 51 58 60 61 59 60 62 55 58 58 67 71 76 81 79 79 79 81 78 76 75 73 71 72 76 78 75 75 64 66
89 99 98 93 80 61 40 34 36 33 36 40 44 49 51 54 58 59 60 60 65 68 61 65 65 65 68 74 77 77 79 82 78 83 76 76 76 74 71 70 72 70 67 65
96 98 97 94 82 45 38 30 30 31 38 43 44 49 49 52 54 59 57 57 60 67 70 58 60 60 62 66 71 73 74 74 79 80 69 70 75 72 70 70 70 70 73 70
96 98 96 93 60 38 32 25 28 34 42 40 42 46 49 51 48 54 54 54 54 56 57 62 61 63 67 69 69 72 76 75 78 80 70 73 58 55 57 66 70 70 70 71
99 99 98 91 45 38 30 25 30 32 40 40 43 45 50 49 48 48 50 51 50 53 55 60 64 69 64 70 72 71 73 76 80 82 81 69 65 65 65 65 73 72 71 69
96 98 96 78 49 34 28 25 29 33 37 44 44 46 50 49 49 50 47 47 50 53 56 58 62 68 64 73 69 65 69 69 70 72 74 72 67 68 66 65 76 69 68 67
94 98 96 72 44 32 27 26 29 36 39 43 44 48 50 47 47 48 48 48 50 52 56 59 60 64 58 66 67 66 67 69 74 77 81 76 71 70 71 76 76 75 76 77
98 98 91 61 39 29 28 28 32 36 38 44 45 46 48 44 43 47 46 49 51 54 57 59 59 59 56 59 62 62 65 71 74 80 86 85 71 73 78 78 80 81 82 79
98 97 88 54 39 29 31 31 36 36 36 44 47 48 50 48 47 45 46 47 50 53 54 56 59 59 59 60 65 61 67 65 71 67 70 62 62 63 63 62 62 61 60 60
97 96 88 51 36 30 33 36 37 35 41 46 47 47 48 48 49 48 46 48 49 51 53 54 56 57 59 59 60 60 60 58 61 60 63 61 58 60 60 59 60 63 64 64
97 98 81 42 38 38 40 41 39 39 42 50 49 46 46 46 47 48 48 44 44 50 50 51 53 53 52 56 55 58 60 59 61 64 66 65 66 66 69 71 73 73 69 67
98 98 85 46 42 41 39 40 40 41 39 44 47 46 45 43 42 43 44 46 44 44 46 49 50 49 48 47 47 48 48 51 53 55 58 61 67 70 72 69 69 67 66 63
98 92 68 53 46 46 44 42 39 39 38 37 45 46 42 40 36 34 35 39 41 40 39 42 41 41 40 37 40 34 37 39 40 45 50 56 60 58 60 60 59 57 52 49
98 81 65 57 54 47 41 35 33 35 33 36 45 47 45 42 40 37 33 31 32 31 33 36 35 35 36 39 40 35 38 41 43 49 48 48 49 48 45 43 40 37 38 38
71 69 62 60 51 46 43 38 34 31 25 22 31 43 42 40 39 38 37 34 33 34 37 37 37 37 36 42 38 40 43 45 47 47 44 43 41 39 37 34 31 31 30 29
71 68 63 57 51 50 40 34 29 20 14 22 27 34 36 36 38 37 37 39 41 38 42 44 45 47 48 41 42 44 47 47 45 40 37 37 38 37 36 35 36 36 35 35
73 71 62 55 50 45 39 34 20 15 16 19 31 27 32 34 36 38 39 40 45 45 48 49 51 51 48 48 50 52 50 43 40 39 41 41 41 39 40 40 41 42 43 42
81 68 62 58 47 41 33 24 21 21 25 25 29 27 31 36 39 40 40 45 47 50 57 55 53 54 51 51 50 48 43 40 41 42 42 42 42 43 46 47 45 41 36 35
69 58 58 54 50 40 31 32 27 26 27 28 27 28 30 36 39 39 43 49 52 52 55 53 51 51 48 50 46 39 38 40 40 40 40 44 47 44 38 36 34 28 33 34
63 60 55 51 40 35 35 37 36 36 32 31 29 32 32 38 41 45 50 54 57 53 55 51 48 45 44 42 38 36 38 40 41 44 42 38 34 31 29 29 28 28 31 33
57 49 47 40 39 36 38 30 30 33 30 30 32 37 42 46 50 50 52 53 51 52 53 49 43 40 38 36 36 37 39 39 36 33 26 25 26 26 26 28 30 33 35 37
45 37 31 38 45 50 53 51 45 40 37 35 38 42 47 53 53 51 50 52 53 50 45 42 39 38 35 36 39 38 35 30 24 24 24 25 26 25 25 29 33 41 44 49
39 35 35 41 43 53 51 49 47 45 43 42 41 48 53 54 52 50 48 47 46 38 39 38 38 35 35 37 35 31 26 23 23 25 25 24 23 22 20 18 22 25 32 43
41 37 33 40 46 59 57 51 50 50 48 55 54 50 53 53 52 50 46 43 35 34 37 38 37 34 34 32 27 25 23 23 23 22 21 20 17 16 17 17 19 25 32 37